Regional Weather Roundup
Issued by NWS

Home | Current Version | Previous Version | Text Only | Print | Product List | Glossary On
Versions: 1 2 3 4 5 6 7 8 9 10 11 12 13 14 15 16 17 18 19 20 21 22 23 24 25 26 27 28 29 30 31 32 33 34 35 36 37 38 39 40 41 42 43 44 45 46 47 48 49 50
000
ASCA44 KEWX 231020
RWRMX

LATIN AMERICA AND CARIBBEAN REGIONAL WEATHER ROUNDUP
NATIONAL WEATHER SERVICE AUSTIN/SAN ANTONIO TX
500 AM CDT SAT MAY 23 2015

NOTE: "FAIR" INDICATED FEW OR NO CLOUDS BELOW 12,000 FEET WITH NO
SIGNIFICANT WEATHER AND/OR OBSTRUCTIONS TO VISIBILITY.

BAJA CALIFORNIA

CITY           SKY/WX    TMP DP  RH WIND       PRES   REMARKS
TIJUANA        MOCLDY    57  52  82 CALM      30.10S

NORTHWESTERN MEXICO

CITY           SKY/WX    TMP DP  RH WIND       PRES   REMARKS

NORTHEASTERN MEXICO

CITY           SKY/WX    TMP DP  RH WIND       PRES   REMARKS
MONTERREY      CLOUDY    73  70  88 CALM      30.02R
NUEVO LAREDO   CLOUDY    79  73  83 SE9       30.00
REYNOSA        MOCLDY    75  72  88 E3        30.01
TORREON        MOCLDY    72  57  60 E5        30.15

WESTERN MEXICO

CITY           SKY/WX    TMP DP  RH WIND       PRES   REMARKS
AGUASCALIENTES PTCLDY    55  52  88 W3        30.34
GUADALAJARA    MOCLDY    64  57  77 CALM      30.26S
MAZATLAN       PTCLDY    66  61  82 NW8       29.92S
P. VALLARTA    CLEAR     75  72  88 NE2       29.92
ZACATECAS      CLEAR     54  43  66 S6        30.34F

CENTRAL MEXICO

CITY           SKY/WX    TMP DP  RH WIND       PRES   REMARKS
MEXICO CITY    CLEAR     55  52  88 CALM      30.40S
PUEBLA         MOCLDY    54  52  94 CALM      30.40
QUERETARO      CLOUDY    59  57  94 SE6       30.36F
S. LUIS POTOSI CLEAR     57  57 100 CALM      30.30F
TOLUCA         MOCLDY    52  45  76 CALM      30.43F

SOUTHERN MEXICO

CITY           SKY/WX    TMP DP  RH WIND       PRES   REMARKS
ACAPULCO       CLOUDY    79  73  83 E16       29.92R
VERACRUZ         N/A    N/A N/A N/A MISG        N/A

YUCATAN PENINSULA

CITY           SKY/WX    TMP DP  RH WIND       PRES   REMARKS
CAMPECHE       MOCLDY    81  73  78 E12       29.99
CANCUN         CLEAR     79  73  83 NE3       30.06S
CD. DEL CARMEN MOCLDY    82  72  69 SE12      29.97
COZUMEL        PTCLDY    72  72 100 CALM      30.06R
MERIDA         CLEAR     79  73  83 E7        30.05R
TAPACHULA      CLOUDY    75  72  88 CALM      29.90F
VILLAHERMOSA   PTCLDY    79  72  78 E14       29.95

CENTRAL AMERICA

CITY           SKY/WX    TMP DP  RH WIND       PRES   REMARKS
MANAGUA        MOSUNNY   79  73  83 SE7       29.89R

CARIBBEAN

CITY           SKY/WX    TMP DP  RH WIND       PRES   REMARKS
ARUBA          PTCLDY    81  73  78 E20       29.94S
CURACAO        PTCLDY    81  73  78 E14       29.97S
KINGSTON       PTCLDY    81  73  78 N7        30.00R
NASSAU         PTCLDY    77  72  83 VRB2      30.14R
SAN JUAN       PTCLDY    79  75  89 E6        30.10R
SANTO DOMINGO  MOCLDY    77  73  88 CALM      30.06R
ST. CROIX      CLOUDY    81  73  78 E14       30.09
ST. KITTS      PTCLDY    81  73  78 E15       30.09
ST. THOMAS     CLOUDY    81  73  78 E12       30.09

$$



USA.gov is the U.S. government's official web portal to all federal, state and local government web resources and services.